AXG1 EDDK-EDXW

Flight info

Callsign AXG1
Flight time 0h 42m
Altitude 34000
Route WYP4D WYP DCT HMM DCT WTM/N0511F350 DCT OLDIP
Aircraft C750/M-SBDE3FGHRWXY/S

Departure

Time 2026-03-25 09:47
Airport Cologne Bonn Airport (EDDK)

Arrival

Time 2026-03-25 10:30
Airport Westerland Sylt Airport (EDXW)
Time Latitude Longitude Altitude Speed Heading
2026-03-25 09:33 50.87116 7.12599 228 ft 0 kts 105°
2026-03-25 09:39 50.87115 7.12607 229 ft 3 kts 117°
2026-03-25 09:39 50.87084 7.12619 229 ft 5 kts 213°
2026-03-25 09:39 50.87052 7.12574 229 ft 6 kts 227°
2026-03-25 09:40 50.87011 7.12550 229 ft 6 kts 160°
2026-03-25 09:40 50.86972 7.12602 230 ft 9 kts 137°
2026-03-25 09:40 50.86910 7.12690 232 ft 14 kts 137°
2026-03-25 09:40 50.86824 7.12816 234 ft 18 kts 137°
2026-03-25 09:41 50.86732 7.12949 236 ft 17 kts 137°
2026-03-25 09:41 50.86647 7.13070 239 ft 15 kts 138°
2026-03-25 09:41 50.86571 7.13181 241 ft 14 kts 137°
2026-03-25 09:41 50.86504 7.13281 244 ft 12 kts 127°
2026-03-25 09:42 50.86513 7.13400 246 ft 11 kts 62°
2026-03-25 09:42 50.86548 7.13512 247 ft 11 kts 64°
2026-03-25 09:42 50.86579 7.13624 248 ft 11 kts 64°
2026-03-25 09:42 50.86613 7.13734 249 ft 11 kts 64°
2026-03-25 09:43 50.86648 7.13847 250 ft 12 kts 64°
2026-03-25 09:43 50.86684 7.13966 252 ft 12 kts 65°
2026-03-25 09:43 50.86719 7.14084 253 ft 11 kts 65°
2026-03-25 09:43 50.86786 7.14117 252 ft 12 kts 328°
2026-03-25 09:44 50.86860 7.14015 249 ft 15 kts 325°
2026-03-25 09:44 50.86912 7.14103 250 ft 14 kts 105°
2026-03-25 09:44 50.86895 7.14252 253 ft 12 kts 99°
2026-03-25 09:44 50.86882 7.14378 257 ft 10 kts 99°
2026-03-25 09:45 50.86870 7.14488 259 ft 10 kts 101°
2026-03-25 09:45 50.86843 7.14592 261 ft 9 kts 116°
2026-03-25 09:45 50.86813 7.14674 263 ft 7 kts 124°
2026-03-25 09:45 50.86783 7.14735 265 ft 6 kts 131°
2026-03-25 09:46 50.86752 7.14778 266 ft 4 kts 193°
2026-03-25 09:46 50.86745 7.14766 266 ft 0 kts 241°
2026-03-25 09:47 50.86744 7.14764 266 ft 1 kts 241°
2026-03-25 09:47 50.86580 7.14235 258 ft 113 kts 242°
2026-03-25 09:47 50.86121 7.12784 767 ft 178 kts 246°
2026-03-25 09:47 50.85568 7.11002 2351 ft 195 kts 248°
2026-03-25 09:48 50.85010 7.09157 3909 ft 197 kts 249°
2026-03-25 09:48 50.84430 7.07215 5223 ft 208 kts 247°
2026-03-25 09:48 50.83390 7.05651 6469 ft 231 kts 209°
2026-03-25 09:48 50.81741 7.05454 7563 ft 264 kts 172°
2026-03-25 09:49 50.80025 7.06806 8666 ft 286 kts 156°
2026-03-25 09:49 50.78297 7.08455 9703 ft 307 kts 140°
2026-03-25 09:49 50.77144 7.11330 10795 ft 326 kts 109°
2026-03-25 09:49 50.76935 7.14911 11752 ft 340 kts 83°
2026-03-25 09:50 50.77231 7.18630 12832 ft 349 kts 76°
2026-03-25 09:50 50.77917 7.22324 13920 ft 355 kts 63°
2026-03-25 09:50 50.79407 7.25333 14997 ft 353 kts 34°
2026-03-25 09:50 50.81479 7.27184 16141 ft 349 kts 20°
2026-03-25 09:51 50.83725 7.28638 17154 ft 350 kts 10°
2026-03-25 09:51 50.86064 7.29659 18229 ft 353 kts
2026-03-25 09:51 50.88462 7.30638 19143 ft 360 kts
2026-03-25 09:51 50.90915 7.31632 19981 ft 369 kts
2026-03-25 09:52 50.93417 7.32652 20806 ft 376 kts
2026-03-25 09:52 50.95943 7.33670 21522 ft 385 kts
2026-03-25 09:52 50.98573 7.34741 22308 ft 392 kts
2026-03-25 09:52 51.01220 7.35816 23038 ft 399 kts
2026-03-25 09:53 51.03928 7.36918 23793 ft 405 kts
2026-03-25 09:53 51.06677 7.38036 24414 ft 413 kts
2026-03-25 09:53 51.09483 7.39182 25069 ft 419 kts
2026-03-25 09:53 51.12324 7.40342 25747 ft 424 kts
2026-03-25 09:54 51.15159 7.41504 26320 ft 428 kts
2026-03-25 09:54 51.18055 7.42689 26965 ft 430 kts
2026-03-25 09:54 51.20964 7.43876 27489 ft 435 kts
2026-03-25 09:54 51.23860 7.45069 28057 ft 437 kts
2026-03-25 09:55 51.26839 7.46294 28542 ft 442 kts
2026-03-25 09:55 51.29819 7.47520 29022 ft 445 kts
2026-03-25 09:55 51.32809 7.48754 29448 ft 450 kts
2026-03-25 09:55 51.35832 7.49998 29919 ft 453 kts
2026-03-25 09:56 51.38898 7.51261 30402 ft 455 kts
2026-03-25 09:56 51.41954 7.52527 30808 ft 458 kts
2026-03-25 09:56 51.45067 7.53821 31242 ft 461 kts
2026-03-25 09:56 51.48170 7.55101 31634 ft 464 kts
2026-03-25 09:57 51.51293 7.56399 32066 ft 465 kts
2026-03-25 09:57 51.54438 7.57716 32448 ft 469 kts
2026-03-25 09:57 51.57578 7.59022 32778 ft 472 kts
2026-03-25 09:57 51.60794 7.60366 33088 ft 473 kts
2026-03-25 09:58 51.63944 7.61683 33372 ft 475 kts
2026-03-25 09:58 51.67166 7.63032 33605 ft 480 kts
2026-03-25 09:58 51.70403 7.64385 33621 ft 489 kts
2026-03-25 09:59 51.77124 7.67207 33612 ft 505 kts 10°
2026-03-25 09:59 51.83974 7.70097 33623 ft 519 kts
2026-03-25 09:59 51.87523 7.70893 33615 ft 514 kts 356°
2026-03-25 10:00 51.91096 7.70883 33626 ft 521 kts 356°
2026-03-25 10:00 51.98445 7.70950 33596 ft 530 kts 356°
2026-03-25 10:01 52.05840 7.71020 33613 ft 538 kts 356°
2026-03-25 10:01 52.13331 7.71092 33617 ft 541 kts 356°
2026-03-25 10:02 52.20889 7.71164 33597 ft 542 kts 356°
2026-03-25 10:02 52.28433 7.71239 33619 ft 542 kts 356°
2026-03-25 10:03 52.35960 7.71314 33586 ft 543 kts 356°
2026-03-25 10:03 52.43493 7.71386 33561 ft 544 kts 356°
2026-03-25 10:04 52.51044 7.71458 33541 ft 543 kts 356°
2026-03-25 10:04 52.58583 7.71537 33570 ft 544 kts 356°
2026-03-25 10:05 52.66106 7.71606 33548 ft 544 kts 356°
2026-03-25 10:05 52.73641 7.71684 33536 ft 543 kts 356°
2026-03-25 10:06 52.81214 7.71758 33566 ft 545 kts 356°
2026-03-25 10:06 52.88795 7.71833 33528 ft 544 kts 356°
2026-03-25 10:07 52.96355 7.71911 33575 ft 544 kts 356°
2026-03-25 10:07 53.03943 7.71984 33546 ft 544 kts 356°
2026-03-25 10:08 53.11525 7.72064 33533 ft 544 kts 356°
2026-03-25 10:08 53.19083 7.72138 33523 ft 544 kts 356°
2026-03-25 10:09 53.26598 7.72214 33483 ft 544 kts 357°
2026-03-25 10:09 53.34139 7.72296 33478 ft 545 kts 356°
2026-03-25 10:10 53.41723 7.72370 33479 ft 544 kts 357°
2026-03-25 10:10 53.49287 7.72448 33474 ft 544 kts 357°
2026-03-25 10:11 53.56800 7.72879 33452 ft 550 kts
2026-03-25 10:11 53.64364 7.75228 33486 ft 550 kts
2026-03-25 10:12 53.71854 7.77535 33480 ft 542 kts
2026-03-25 10:12 53.75435 7.78647 33019 ft 514 kts
2026-03-25 10:12 53.78860 7.79699 32286 ft 498 kts
2026-03-25 10:12 53.82215 7.80733 31644 ft 487 kts
2026-03-25 10:13 53.85510 7.81748 31026 ft 476 kts
2026-03-25 10:13 53.88694 7.82740 30413 ft 465 kts
2026-03-25 10:13 53.91857 7.83717 29637 ft 466 kts
2026-03-25 10:13 53.95031 7.84693 28869 ft 466 kts
2026-03-25 10:14 53.98184 7.85679 28104 ft 463 kts
2026-03-25 10:14 54.01308 7.86648 27308 ft 458 kts
2026-03-25 10:14 54.04406 7.87615 26414 ft 454 kts
2026-03-25 10:14 54.07470 7.88570 25585 ft 444 kts
2026-03-25 10:15 54.10484 7.89515 24776 ft 433 kts
2026-03-25 10:15 54.13380 7.90428 23763 ft 423 kts
2026-03-25 10:15 54.16208 7.91325 22745 ft 414 kts
2026-03-25 10:15 54.19000 7.92204 21722 ft 405 kts
2026-03-25 10:16 54.21766 7.93072 20690 ft 397 kts
2026-03-25 10:16 54.24439 7.93910 19685 ft 390 kts
2026-03-25 10:16 54.27069 7.94746 18680 ft 383 kts
2026-03-25 10:16 54.29639 7.95555 17683 ft 376 kts
2026-03-25 10:17 54.32148 7.96347 16698 ft 370 kts
2026-03-25 10:17 54.37095 7.97912 14953 ft 358 kts
2026-03-25 10:17 54.39526 7.98682 14021 ft 354 kts
2026-03-25 10:18 54.41883 7.99428 13116 ft 344 kts
2026-03-25 10:18 54.44204 8.00169 12180 ft 332 kts
2026-03-25 10:18 54.48582 8.01564 10471 ft 315 kts
2026-03-25 10:19 54.52759 8.02896 8806 ft 303 kts
2026-03-25 10:19 54.56741 8.04174 7560 ft 284 kts
2026-03-25 10:20 54.58642 8.04786 6954 ft 270 kts
2026-03-25 10:20 54.62231 8.05931 5857 ft 258 kts
2026-03-25 10:20 54.63973 8.06497 5373 ft 254 kts
2026-03-25 10:21 54.67408 8.07594 4365 ft 250 kts
2026-03-25 10:21 54.69105 8.08141 3876 ft 249 kts
2026-03-25 10:21 54.70811 8.08692 3430 ft 248 kts
2026-03-25 10:22 54.72490 8.09233 3021 ft 248 kts
2026-03-25 10:22 54.74183 8.09781 2646 ft 247 kts
2026-03-25 10:22 54.75872 8.10327 2339 ft 247 kts
2026-03-25 10:23 54.79254 8.11419 1711 ft 246 kts
2026-03-25 10:23 54.80912 8.11954 1503 ft 242 kts
2026-03-25 10:23 54.82536 8.12485 1477 ft 235 kts
2026-03-25 10:24 54.85700 8.13515 1480 ft 230 kts
2026-03-25 10:24 54.87276 8.14025 1479 ft 230 kts
2026-03-25 10:24 54.88857 8.14540 1483 ft 231 kts
2026-03-25 10:24 54.90436 8.15051 1483 ft 233 kts
2026-03-25 10:25 54.92027 8.15570 1485 ft 234 kts
2026-03-25 10:25 54.93628 8.16094 1486 ft 236 kts
2026-03-25 10:25 54.95257 8.16627 1481 ft 237 kts
2026-03-25 10:26 54.98483 8.17683 1483 ft 234 kts
2026-03-25 10:26 55.00027 8.18440 1487 ft 226 kts 21°
2026-03-25 10:26 55.00933 8.20405 1426 ft 203 kts 68°
2026-03-25 10:26 55.00820 8.22602 1474 ft 166 kts 114°
2026-03-25 10:27 55.00092 8.23943 1429 ft 146 kts 161°
2026-03-25 10:27 54.99127 8.24505 1509 ft 152 kts 163°
2026-03-25 10:27 54.98181 8.25520 1515 ft 161 kts 149°
2026-03-25 10:27 54.97286 8.26647 1357 ft 160 kts 149°
2026-03-25 10:28 54.96386 8.27767 1152 ft 157 kts 149°
2026-03-25 10:28 54.95519 8.28844 939 ft 151 kts 148°
2026-03-25 10:28 54.94674 8.29897 726 ft 146 kts 149°
2026-03-25 10:28 54.93858 8.30910 536 ft 144 kts 148°
2026-03-25 10:29 54.92244 8.32905 153 ft 140 kts 148°
2026-03-25 10:29 54.91479 8.33852 33 ft 120 kts 146°
2026-03-25 10:30 54.90556 8.34870 36 ft 10 kts 223°
2026-03-25 10:30 54.90499 8.34783 36 ft 11 kts 223°
2026-03-25 10:30 54.90438 8.34685 35 ft 12 kts 223°